NOAA 19

Last updated on Sat Apr 13 2024 01:02:16 GMT+0100 (British Summer Time)

1 33591U 09005A 24103.58884238 .00000245 00000+0 15564-3 0 9995 2 33591 99.0539 158.6774 0014854 116.2558 244.0142 14.12965811782109
UTC large
Height (km)
Speed (km/s)
/
Latitude / Longitude
Inclination (degrees)
Orbital Period (minutes)
Azimuth
Elevation
Range (km)
Doppler Factor

Next 0 passes for location: London (51.5072 / 0.1276)

Sorry there are no passes over London.